| time (UTC) | temp F | wind direction | speed MPH | gust MPH | rain 1hr in | rain 24hr in | rain mn in | humidity % | barometer mb |
| 20260903013334 | 89 | 137 | 0.0 | 0.0 | 0.00 | 0.00 | 0.00 | 54 | 1013.1 |
| 20260903012329 | 90 | 137 | 0.0 | 0.0 | 0.00 | 0.00 | 0.00 | 53 | 1013.0 |
| 20260903011338 | 91 | 137 | 0.0 | 0.0 | 0.00 | 0.00 | 0.00 | 52 | 1012.9 |
| 20260903010357 | 92 | 137 | 0.0 | 1.0 | 0.00 | 0.00 | 0.00 | 48 | 1012.9 |
| 20260903005327 | 94 | 137 | 0.0 | 0.0 | 0.00 | 0.00 | 0.00 | 46 | 1012.9 |
| 20260903004348 | 95 | 137 | 0.0 | 2.0 | 0.00 | 0.00 | 0.00 | 43 | 1013.0 |
| 20260903003417 | 95 | 137 | 1.0 | 4.0 | 0.00 | 0.00 | 0.00 | 40 | 1012.9 |
| 20260903002341 | 96 | 161 | 2.0 | 6.0 | 0.00 | 0.00 | 0.00 | 39 | 1012.9 |
| 20260903001405 | 97 | 156 | 2.0 | 5.0 | 0.00 | 0.00 | 0.00 | 39 | 1012.9 |
| 20260903000327 | 97 | 148 | 3.0 | 8.0 | 0.00 | 0.00 | 0.00 | 39 | 1013.0 |
| 20260902235347 | 98 | 164 | 1.0 | 7.0 | 0.00 | 0.00 | 0.00 | 38 | 1013.0 |
| 20260902234417 | 98 | 213 | 3.0 | 7.0 | 0.00 | 0.00 | 0.00 | 38 | 1013.1 |
| 20260902233336 | 98 | 175 | 2.0 | 6.0 | 0.00 | 0.00 | 0.00 | 38 | 1013.0 |
| 20260902232412 | 98 | 175 | 3.0 | 7.0 | 0.00 | 0.00 | 0.00 | 38 | 1013.2 |
| 20260902231345 | 99 | 164 | 2.0 | 5.0 | 0.00 | 0.00 | 0.00 | 36 | 1013.1 |
| 20260902230405 | 99 | 227 | 2.0 | 7.0 | 0.00 | 0.00 | 0.00 | 37 | 1013.0 |
| 20260902225334 | 99 | 242 | 2.0 | 6.0 | 0.00 | 0.00 | 0.00 | 36 | 1012.9 |
| 20260902224354 | 100 | 255 | 2.0 | 6.0 | 0.00 | 0.00 | 0.00 | 36 | 1013.1 |
| 20260902223323 | 99 | 259 | 2.0 | 7.0 | 0.00 | 0.00 | 0.00 | 37 | 1013.0 |
| 20260902220345 | 99 | 304 | 1.0 | 8.0 | 0.00 | 0.00 | 0.00 | 37 | 1013.3 |
| 20260902215415 | 99 | 221 | 4.0 | 9.0 | 0.00 | 0.00 | 0.00 | 37 | 1013.3 |
| 20260902214328 | 99 | 243 | 2.0 | 9.0 | 0.00 | 0.00 | 0.00 | 38 | 1013.4 |
| 20260902213358 | 99 | 194 | 2.0 | 8.0 | 0.00 | 0.00 | 0.00 | 39 | 1013.5 |
| 20260902212419 | 99 | 222 | 3.0 | 8.0 | 0.00 | 0.00 | 0.00 | 39 | 1013.5 |
| 20260902210327 | 98 | 232 | 4.0 | 8.0 | 0.00 | 0.00 | 0.00 | 39 | 1013.8 |
| 20260902205342 | 98 | 207 | 4.0 | 11.0 | 0.00 | 0.00 | 0.00 | 39 | 1013.9 |
| 20260902204416 | 98 | 236 | 4.0 | 9.0 | 0.00 | 0.00 | 0.00 | 39 | 1014.1 |
| 20260902203344 | 98 | 204 | 5.0 | 13.0 | 0.00 | 0.00 | 0.00 | 41 | 1014.2 |
| 20260902202407 | 97 | 123 | 2.0 | 7.0 | 0.00 | 0.00 | 0.00 | 42 | 1014.3 |
| 20260902201330 | 97 | 103 | 4.0 | 9.0 | 0.00 | 0.00 | 0.00 | 41 | 1014.5 |
| 20260902200357 | 98 | 236 | 1.0 | 7.0 | 0.00 | 0.00 | 0.00 | 42 | 1014.8 |
| 20260902195422 | 98 | 167 | 4.0 | 14.0 | 0.00 | 0.00 | 0.00 | 43 | 1014.9 |
| 20260902193330 | 96 | 304 | 2.0 | 12.0 | 0.00 | 0.00 | 0.00 | 43 | 1015.4 |
| 20260902192328 | 97 | 157 | 4.0 | 11.0 | 0.00 | 0.00 | 0.00 | 44 | 1015.4 |
| 20260902191358 | 97 | 153 | 2.0 | 9.0 | 0.00 | 0.00 | 0.00 | 46 | 1015.6 |
| 20260902190324 | 97 | 198 | 4.0 | 8.0 | 0.00 | 0.00 | 0.00 | 43 | 1015.8 |
| 20260902185353 | 96 | 149 | 5.0 | 10.0 | 0.00 | 0.00 | 0.00 | 44 | 1016.0 |
| 20260902184326 | 96 | 265 | 3.0 | 9.0 | 0.00 | 0.00 | 0.00 | 45 | 1016.1 |
| 20260902183352 | 96 | 197 | 4.0 | 10.0 | 0.00 | 0.00 | 0.00 | 45 | 1016.4 |
| 20260902182325 | 96 | 131 | 3.0 | 8.0 | 0.00 | 0.00 | 0.00 | 46 | 1016.4 |
| 20260902180401 | 95 | 209 | 4.0 | 11.0 | 0.00 | 0.00 | 0.00 | 48 | 1016.8 |
| 20260902175329 | 94 | 176 | 3.0 | 11.0 | 0.00 | 0.00 | 0.00 | 50 | 1017.0 |
| 20260902174354 | 94 | 131 | 4.0 | 9.0 | 0.00 | 0.00 | 0.00 | 50 | 1017.0 |
| 20260902173325 | 93 | 71 | 3.0 | 10.0 | 0.00 | 0.00 | 0.00 | 50 | 1017.3 |
| 20260902171337 | 93 | 181 | 4.0 | 7.0 | 0.00 | 0.00 | 0.00 | 53 | 1017.6 |
| 20260902170344 | 93 | 248 | 2.0 | 9.0 | 0.00 | 0.00 | 0.00 | 54 | 1017.6 |
| 20260902165414 | 92 | 167 | 1.0 | 7.0 | 0.00 | 0.00 | 0.00 | 55 | 1017.7 |
| 20260902164334 | 92 | 219 | 3.0 | 8.0 | 0.00 | 0.00 | 0.00 | 54 | 1017.8 |
| 20260902163405 | 91 | 304 | 1.0 | 7.0 | 0.00 | 0.00 | 0.00 | 57 | 1017.8 |
| 20260902162405 | 90 | 107 | 4.0 | 8.0 | 0.00 | 0.00 | 0.00 | 59 | 1017.9 |
| 20260902161420 | 89 | 192 | 2.0 | 8.0 | 0.00 | 0.00 | 0.00 | 62 | 1017.9 |
| 20260902160324 | 89 | 232 | 2.0 | 10.0 | 0.00 | 0.00 | 0.00 | 62 | 1018.0 |
| 20260902155359 | 88 | 158 | 2.0 | 9.0 | 0.00 | 0.00 | 0.00 | 63 | 1018.0 |
| 20260902154420 | 88 | 173 | 3.0 | 10.0 | 0.00 | 0.00 | 0.00 | 64 | 1017.9 |
| 20260902152343 | 86 | 230 | 3.0 | 6.0 | 0.00 | 0.00 | 0.00 | 69 | 1017.9 |
| 20260902151416 | 85 | 201 | 3.0 | 8.0 | 0.00 | 0.00 | 0.00 | 72 | 1017.9 |
| 20260902150422 | 85 | 232 | 4.0 | 7.0 | 0.00 | 0.00 | 0.00 | 73 | 1017.9 |
| 20260902145326 | 84 | 234 | 1.0 | 8.0 | 0.00 | 0.00 | 0.00 | 75 | 1018.1 |
| 20260902144337 | 83 | 219 | 2.0 | 8.0 | 0.00 | 0.00 | 0.00 | 77 | 1018.0 |
| 20260902143343 | 83 | 219 | 2.0 | 7.0 | 0.00 | 0.00 | 0.00 | 78 | 1018.0 |
| 20260902142412 | 82 | 190 | 2.0 | 6.0 | 0.00 | 0.00 | 0.00 | 81 | 1018.1 |
| 20260902141419 | 81 | 205 | 2.0 | 8.0 | 0.00 | 0.00 | 0.00 | 83 | 1018.0 |
| 20260902135345 | 80 | 233 | 3.0 | 9.0 | 0.00 | 0.00 | 0.00 | 85 | 1018.0 |
| 20260902134420 | 79 | 194 | 2.0 | 7.0 | 0.00 | 0.00 | 0.00 | 86 | 1018.0 |
| 20260902133330 | 78 | 100 | 0.0 | 0.0 | 0.00 | 0.00 | 0.00 | 86 | 1018.0 |
| 20260902131344 | 74 | 100 | 0.0 | 0.0 | 0.00 | 0.00 | 0.00 | 90 | 1017.8 |
| 20260902130405 | 72 | 99 | 0.0 | 0.0 | 0.00 | 0.00 | 0.00 | 91 | 1017.7 |
| 20260902125324 | 71 | 99 | 0.0 | 0.0 | 0.00 | 0.00 | 0.00 | 92 | 1017.6 |
| 20260902123347 | 70 | 99 | 0.0 | 0.0 | 0.00 | 0.00 | 0.00 | 91 | 1017.3 |
| 20260902122412 | 70 | 99 | 0.0 | 0.0 | 0.00 | 0.00 | 0.00 | 91 | 1017.4 |
| 20260902121324 | 70 | 99 | 0.0 | 0.0 | 0.00 | 0.00 | 0.00 | 90 | 1017.2 |
| 20260902120357 | 70 | 99 | 0.0 | 0.0 | 0.00 | 0.00 | 0.00 | 90 | 1017.3 |
| 20260902115417 | 71 | 99 | 0.0 | 0.0 | 0.00 | 0.00 | 0.00 | 90 | 1017.2 |
| 20260902112352 | 71 | 99 | 0.0 | 0.0 | 0.00 | 0.00 | 0.00 | 89 | 1017.1 |
| 20260902111416 | 71 | 99 | 0.0 | 0.0 | 0.00 | 0.00 | 0.00 | 89 | 1017.1 |
| 20260902110338 | 71 | 99 | 0.0 | 0.0 | 0.00 | 0.00 | 0.00 | 89 | 1017.2 |
| 20260902105357 | 72 | 99 | 0.0 | 0.0 | 0.00 | 0.00 | 0.00 | 89 | 1017.0 |
| 20260902104326 | 72 | 99 | 0.0 | 0.0 | 0.00 | 0.00 | 0.00 | 89 | 1017.0 |
| 20260902103347 | 72 | 99 | 0.0 | 0.0 | 0.00 | 0.00 | 0.00 | 88 | 1016.9 |
| 20260902102420 | 72 | 99 | 0.0 | 0.0 | 0.00 | 0.00 | 0.00 | 88 | 1017.1 |
| 20260902100338 | 73 | 99 | 0.0 | 0.0 | 0.00 | 0.00 | 0.00 | 88 | 1017.1 |
| 20260902095411 | 73 | 99 | 0.0 | 1.0 | 0.00 | 0.00 | 0.00 | 88 | 1017.0 |
| 20260902094326 | 73 | 99 | 0.0 | 0.0 | 0.00 | 0.00 | 0.00 | 87 | 1017.3 |
| 20260902093354 | 73 | 99 | 0.0 | 0.0 | 0.00 | 0.00 | 0.00 | 87 | 1017.2 |
| 20260902092416 | 73 | 100 | 0.0 | 0.0 | 0.00 | 0.00 | 0.00 | 86 | 1017.2 |
| 20260902091334 | 73 | 100 | 0.0 | 0.0 | 0.00 | 0.00 | 0.00 | 86 | 1017.2 |
| 20260902090339 | 74 | 99 | 0.0 | 0.0 | 0.00 | 0.00 | 0.00 | 86 | 1017.2 |
| 20260902085416 | 74 | 100 | 0.0 | 0.0 | 0.00 | 0.00 | 0.00 | 85 | 1017.2 |
| 20260902084329 | 74 | 100 | 0.0 | 0.0 | 0.00 | 0.00 | 0.00 | 85 | 1017.3 |
| 20260902083359 | 74 | 100 | 0.0 | 0.0 | 0.00 | 0.00 | 0.00 | 84 | 1017.4 |
| 20260902082417 | 74 | 100 | 0.0 | 0.0 | 0.00 | 0.00 | 0.00 | 84 | 1017.4 |
| 20260902080342 | 75 | 100 | 0.0 | 0.0 | 0.00 | 0.00 | 0.00 | 83 | 1017.5 |
| 20260902075411 | 75 | 100 | 0.0 | 0.0 | 0.00 | 0.00 | 0.00 | 82 | 1017.6 |
| 20260902074327 | 75 | 100 | 0.0 | 0.0 | 0.00 | 0.00 | 0.00 | 81 | 1017.6 |
| 20260902073356 | 76 | 100 | 0.0 | 0.0 | 0.00 | 0.00 | 0.00 | 81 | 1017.5 |
| 20260902072405 | 76 | 99 | 0.0 | 0.0 | 0.00 | 0.00 | 0.00 | 80 | 1017.4 |
| 20260902070347 | 77 | 100 | 0.0 | 0.0 | 0.00 | 0.00 | 0.00 | 79 | 1017.3 |
| 20260902065324 | 78 | 100 | 0.0 | 0.0 | 0.00 | 0.00 | 0.00 | 78 | 1017.4 |
| 20260902064336 | 78 | 100 | 0.0 | 0.0 | 0.00 | 0.00 | 0.00 | 77 | 1017.5 |
| 20260902063340 | 79 | 100 | 0.0 | 0.0 | 0.00 | 0.00 | 0.00 | 77 | 1017.4 |
| 20260902062324 | 80 | 100 | 0.0 | 0.0 | 0.00 | 0.00 | 0.00 | 75 | 1017.4 |
| 20260902061337 | 80 | 100 | 0.0 | 1.0 | 0.00 | 0.00 | 0.00 | 73 | 1017.4 |
| 20260902060341 | 81 | 100 | 0.0 | 0.0 | 0.00 | 0.00 | 0.00 | 72 | 1017.3 |
| 20260902055325 | 82 | 100 | 0.0 | 0.0 | 0.00 | 0.00 | 0.00 | 71 | 1017.3 |
| 20260902054338 | 82 | 100 | 0.0 | 3.0 | 0.00 | 0.00 | 0.00 | 70 | 1017.2 |
| 20260902053323 | 82 | 145 | 1.0 | 5.0 | 0.00 | 0.00 | 0.00 | 69 | 1017.2 |
| 20260902052335 | 83 | 140 | 2.0 | 6.0 | 0.00 | 0.00 | 0.00 | 69 | 1017.1 |
| 20260902051338 | 83 | 155 | 2.0 | 7.0 | 0.00 | 0.00 | 0.00 | 69 | 1017.0 |
| 20260902050342 | 83 | 160 | 4.0 | 6.0 | 0.00 | 0.00 | 0.00 | 68 | 1017.0 |
| 20260902045347 | 83 | 156 | 3.0 | 6.0 | 0.00 | 0.00 | 0.00 | 68 | 1017.0 |
| 20260902044409 | 84 | 163 | 4.0 | 6.0 | 0.00 | 0.00 | 0.00 | 67 | 1017.0 |
| 20260902043326 | 84 | 191 | 4.0 | 6.0 | 0.00 | 0.00 | 0.00 | 67 | 1016.9 |
| 20260902042350 | 84 | 178 | 5.0 | 7.0 | 0.00 | 0.00 | 0.00 | 65 | 1016.9 |
| 20260902041414 | 85 | 149 | 4.0 | 8.0 | 0.00 | 0.00 | 0.00 | 64 | 1016.8 |
| 20260902040333 | 86 | 165 | 4.0 | 11.0 | 0.00 | 0.00 | 0.00 | 63 | 1016.7 |
| 20260902035353 | 86 | 159 | 4.0 | 10.0 | 0.00 | 0.00 | 0.00 | 62 | 1016.8 |
| 20260902034414 | 86 | 161 | 3.0 | 9.0 | 0.00 | 0.00 | 0.00 | 60 | 1016.8 |
| 20260902033338 | 86 | 135 | 3.0 | 6.0 | 0.00 | 0.00 | 0.00 | 59 | 1016.7 |
| 20260902032355 | 87 | 136 | 2.0 | 9.0 | 0.00 | 0.00 | 0.00 | 59 | 1016.5 |
| 20260902031410 | 87 | 145 | 3.0 | 7.0 | 0.00 | 0.00 | 0.00 | 59 | 1016.3 |
| 20260902030329 | 87 | 101 | 2.0 | 7.0 | 0.00 | 0.00 | 0.00 | 59 | 1016.2 |
| 20260902024350 | 87 | 159 | 1.0 | 3.0 | 0.00 | 0.00 | 0.00 | 60 | 1015.9 |
| 20260902023422 | 87 | 138 | 2.0 | 5.0 | 0.00 | 0.00 | 0.00 | 60 | 1015.8 |
| 20260902022350 | 86 | 135 | 0.0 | 3.0 | 0.00 | 0.00 | 0.00 | 60 | 1015.5 |
| 20260902021415 | 86 | 107 | 0.0 | 0.0 | 0.00 | 0.00 | 0.00 | 61 | 1015.4 |
| 20260902020341 | 86 | 107 | 0.0 | 2.0 | 0.00 | 0.00 | 0.00 | 62 | 1015.2 |
| 20260902015417 | 86 | 107 | 0.0 | 1.0 | 0.00 | 0.00 | 0.00 | 62 | 1015.1 |
| 20260902014336 | 87 | 107 | 0.0 | 1.0 | 0.00 | 0.00 | 0.00 | 60 | 1015.0 |